[[{"header":{"parameterUnit":"m.s-1","parameterCategory":1,"la1":30.2991,"la2":30.254,"lo1":-89.0895,"lo2":-89.0444,"dy":0.0017,"dx":0.0017,"nx":28,"ny":28,"refTime":"2024-02-05T03:00:00:Z","depth":0,"parameterNumber":2,"parameterNumberName":"U-component_of_WINDS"},"data":[0,0,0,0,0,0,0,0,0,0,0,0,0,0,0,0,0,0,0,0,0,0,0,0,0,0,0,0,0,0,0,0,0,0,0,0,0,0,0,0,0,0,0,0,0,0,0,0,0,0,0,0,0,0,0,0,0,0,2.7024,2.7024,0,2.703,2.703,2.703,2.696,2.6958,2.6956,2.6954,2.696,2.6961,2.6963,0,0,0,0,0,0,0,0,0,0,0,0,0,2.6953,2.6955,2.7024,2.7024,2.7024,2.703,2.703,2.703,2.696,2.6958,2.6956,2.6953,2.6959,2.6961,2.6963,0,0,0,0,0,0,0,0,0,0,0,0,0,2.6974,2.6955,2.7024,2.699,2.6987,2.703,2.703,2.703,2.6961,2.6958,2.6955,2.6952,2.6958,2.6961,2.6964,2.7039,0,0,2.6973,2.6974,0,0,0,0,0,0,0,0,2.6973,2.6976,2.6995,2.6993,2.6989,2.6991,2.7007,2.7033,2.6962,2.6971,2.6954,2.6951,2.6972,2.6974,2.6981,2.7039,2.7039,2.6973,2.6975,2.6976,2.6977,0,0,0,0,0,0,0,2.6971,2.6976,2.7026,2.6995,2.6992,2.6975,2.6975,2.7011,2.6988,2.697,2.6965,2.6966,2.697,2.6979,2.6981,2.7039,2.6973,2.6975,2.6977,2.6978,2.7161,2.7164,0,0,0,0,0,0,2.6975,2.6975,2.7026,2.7026,2.6974,2.6978,2.6978,2.6994,2.6987,2.6983,2.6969,2.6963,2.6975,2.6978,2.6981,2.7069,2.6976,2.6979,2.698,2.7158,2.7162,2.7165,0,0,0,0,0,0,2.6973,2.698,2.7026,2.6999,2.7004,2.6983,2.7,2.6995,2.7003,2.6986,2.6982,2.6982,2.6973,2.6977,2.7025,2.7068,2.698,2.6982,2.7154,2.7159,2.7163,2.7246,0,0,0,0,0,0,2.6972,2.698,2.7008,2.7001,2.7006,2.7071,2.7003,2.6997,2.7009,2.7001,2.6997,2.6994,2.6971,2.7022,2.7028,2.7071,2.6985,2.715,2.7156,2.7162,2.724,2.7253,2.7265,0,0,0,0,0,2.6969,2.7031,2.701,2.7016,2.7041,2.7073,2.7076,2.7049,2.7012,2.7041,2.703,2.6994,2.7063,2.7027,2.7034,2.7078,2.7147,2.7155,2.7161,2.7234,2.7251,2.7265,0,0,0,0,0,0,2.7043,2.7029,2.7006,2.7066,2.7072,2.7061,2.7096,2.7067,2.7082,2.7075,2.704,2.704,2.7094,2.7091,2.7051,2.7151,2.7099,2.7107,2.7151,2.7167,2.718,2.7179,2.6987,0,0,0,0,0,2.7066,2.7094,2.708,2.7135,2.7139,2.7118,2.7131,2.7109,2.7113,2.7115,2.7107,2.7113,2.7135,2.7151,2.7171,2.7239,2.7238,2.7273,2.7286,2.7296,2.7304,2.7341,2.7357,2.7188,2.7188,2.7188,0,0,2.7114,2.711,2.713,2.715,2.7151,2.7181,2.712,2.7153,2.7175,2.712,2.7166,2.7161,2.7164,2.7223,2.7249,2.7222,2.735,2.7305,2.7313,2.7316,2.735,2.7366,2.738,2.7193,2.7192,2.7191,0,0,2.7218,2.7218,2.7264,2.7267,2.727,2.7256,2.7267,2.7262,2.7257,2.7302,2.7262,2.7287,2.7327,2.7331,2.7339,2.7446,2.7414,2.7454,2.752,2.7556,2.7569,2.7581,2.762,2.7635,2.7462,2.7462,2.7462,0,2.7278,2.7321,2.7291,2.7328,2.7339,2.7291,2.7338,2.7342,2.7352,2.736,2.733,2.738,2.7379,2.7439,2.7466,2.7473,2.7485,2.7454,2.757,2.7581,2.7592,2.7629,2.7643,2.7467,2.7466,2.7466,2.7465,0,2.7395,2.7425,2.7463,2.7474,2.7489,2.7531,2.7508,2.7526,2.7504,2.7493,2.7541,2.7538,2.7557,2.7569,2.7548,2.7627,2.7611,2.7576,2.7522,2.7613,2.7647,2.7661,2.7474,2.7472,2.747,2.7469,0,0,2.7544,2.7539,2.7554,2.7559,2.756,2.7583,2.7623,2.7643,2.766,2.7668,2.7702,2.7737,2.7705,2.7714,2.7693,2.7725,2.7811,2.7686,2.7686,2.771,2.79,2.7926,2.7943,2.779,2.7793,2.7795,2.79,0,2.7645,2.7714,2.7689,2.7759,2.7788,2.7744,2.7779,2.7783,2.7774,2.7798,2.7787,2.7813,2.7769,2.7774,2.7804,2.7795,2.7849,2.7787,2.7821,2.7823,2.7822,2.7961,2.7988,2.8088,2.7913,2.7915,2.7917,0,2.7772,2.7787,2.7861,2.7858,2.7869,2.7901,2.7918,2.794,2.7945,2.7936,2.7947,2.7919,2.7959,2.7906,2.796,2.7919,2.7931,2.7929,2.7932,2.7934,2.7875,2.7967,2.8118,2.8134,2.7937,2.7935,2.7934,0,2.7875,2.7913,2.7962,2.7968,2.7966,2.799,2.799,2.7992,2.8006,2.802,2.8029,2.8048,2.8058,2.8074,2.8052,2.8015,2.811,2.8055,2.8104,2.8105,2.8126,2.8125,2.8282,2.8134,2.8134,2.8134,2.8133,0,2.7991,2.8038,2.8009,2.8039,2.8091,2.8062,2.8114,2.8109,2.8112,2.8141,2.8103,2.8131,2.81,2.8126,2.8109,2.8157,2.8162,2.8156,2.8151,2.816,2.8161,2.8168,2.8161,2.8137,2.8137,2.8136,2.8135,0,2.8114,2.8096,2.8147,2.8142,2.8142,2.818,2.8175,2.8203,2.8192,2.8229,2.8236,2.8219,2.8247,2.8227,2.8254,2.8243,2.8307,2.8292,2.8306,2.8302,2.8353,2.8349,2.852,2.8541,2.8379,2.8381,2.8382,0,2.8189,2.8224,2.8223,2.824,2.8243,2.8271,2.8285,2.8259,2.8275,2.8284,2.8311,2.8336,2.8355,2.8402,2.8391,2.8413,2.8398,2.8457,2.8401,2.8409,2.84,2.8398,2.8402,2.8468,2.847,2.8472,2.8473,0,2.8325,2.8315,2.8337,2.8357,2.8375,2.8389,2.84,2.8416,2.839,2.841,2.8439,2.8453,2.8482,2.8507,2.8525,2.8525,2.8495,2.8491,2.8503,2.8513,2.852,2.8517,2.8337,2.8487,2.8485,2.8484,2.8484,2.8483,2.8427,2.8457,2.8461,2.8488,2.8493,2.8505,2.8531,2.8524,2.8548,2.8569,2.8552,2.8587,2.8592,2.8612,2.8617,2.8643,2.8619,2.8637,2.8642,2.8647,2.8655,2.8515,2.8646,2.8646,2.8645,2.8645,2.8645,0,2.8562,2.8563,2.8587,2.8605,2.8626,2.8596,2.8607,2.8627,2.8657,2.8665,2.8684,2.8718,2.8743,2.8735,2.8757,2.878,2.8767,2.8787,2.8785,2.8786,2.8675,2.8662,2.8797,2.8797,2.8797,2.8797,2.8797,2.8797,2.8635,2.8684,2.8675,2.8727,2.8727,2.8761,2.877,2.8781,2.8787,2.8826,2.8847,2.8842,2.8844,2.8866,2.8888,2.8885,2.8895,2.892,2.8913,2.8809,2.8794,2.8779,2.8767,2.8923,2.8923,2.9022,2.9023,2.9023]},{"header":{"parameterUnit":"m.s-1","parameterCategory":1,"la1":30.2991,"la2":30.254,"lo1":-89.0895,"lo2":-89.0444,"dy":0.0017,"dx":0.0017,"nx":28,"ny":28,"refTime":"2024-02-05T03:00:00:Z","depth":0,"parameterNumber":3,"parameterNumberName":"V-component_of_WINDS"},"data":[0,0,0,0,0,0,0,0,0,0,0,0,0,0,0,0,0,0,0,0,0,0,0,0,0,0,0,0,0,0,0,0,0,0,0,0,0,0,0,0,0,0,0,0,0,0,0,0,0,0,0,0,0,0,0,0,0,0,-4.5509,-4.551,0,-4.5679,-4.5681,-4.5683,-4.5669,-4.5666,-4.5664,-4.5661,-4.5836,-4.5843,-4.585,0,0,0,0,0,0,0,0,0,0,0,0,0,-4.5173,-4.5179,-4.5508,-4.5511,-4.5513,-4.5679,-4.5681,-4.5683,-4.5669,-4.5666,-4.5663,-4.566,-4.5834,-4.5842,-4.5851,0,0,0,0,0,0,0,0,0,0,0,0,0,-4.5329,-4.5181,-4.5508,-4.5526,-4.5529,-4.5678,-4.5681,-4.5684,-4.567,-4.5666,-4.5662,-4.5659,-4.5831,-4.5842,-4.5852,-4.5995,0,0,-4.5884,-4.5889,0,0,0,0,0,0,0,0,-4.532,-4.5341,-4.5521,-4.5525,-4.5529,-4.5649,-4.5627,-4.5788,-4.5671,-4.5616,-4.5661,-4.5657,-4.5777,-4.5792,-4.5832,-4.6003,-4.601,-4.5885,-4.5892,-4.5896,-4.5899,0,0,0,0,0,0,0,-4.5309,-4.5333,-4.5576,-4.5524,-4.5528,-4.5526,-4.5544,-4.5657,-4.5716,-4.5621,-4.562,-4.5641,-4.5778,-4.5822,-4.5836,-4.6013,-4.5885,-4.5894,-4.5901,-4.5905,-4.6312,-4.6316,0,0,0,0,0,0,-4.5294,-4.5325,-4.557,-4.5581,-4.5413,-4.5535,-4.5555,-4.5614,-4.5715,-4.5727,-4.5644,-4.5639,-4.5806,-4.5824,-4.5842,-4.6018,-4.5896,-4.5906,-4.5912,-4.6308,-4.6313,-4.6318,0,0,0,0,0,0,-4.5287,-4.5316,-4.5564,-4.5453,-4.5484,-4.5545,-4.5611,-4.5619,-4.5663,-4.5732,-4.5743,-4.5678,-4.5804,-4.5828,-4.5958,-4.6024,-4.5911,-4.5921,-4.6303,-4.6309,-4.6316,-4.6369,0,0,0,0,0,0,-4.5277,-4.5313,-4.5368,-4.5454,-4.549,-4.5675,-4.5615,-4.5626,-4.5681,-4.5677,-4.5767,-4.5778,-4.5802,-4.5942,-4.5968,-4.6037,-4.5929,-4.6297,-4.6306,-4.6313,-4.6362,-4.6377,-4.639,0,0,0,0,0,-4.5265,-4.5376,-4.5371,-4.54,-4.5559,-4.5679,-4.57,-4.5726,-4.5687,-4.5742,-4.5787,-4.5775,-4.6012,-4.5955,-4.5985,-4.6057,-4.6293,-4.6303,-4.6313,-4.6356,-4.6374,-4.639,0,0,0,0,0,0,-4.5295,-4.5387,-4.5383,-4.5524,-4.5594,-4.5677,-4.5747,-4.5744,-4.5826,-4.5819,-4.5848,-4.5868,-4.5999,-4.6041,-4.5976,-4.6202,-4.6148,-4.6164,-4.617,-4.6188,-4.6202,-4.619,-4.5938,0,0,0,0,0,-4.5318,-4.5408,-4.5483,-4.5601,-4.5636,-4.5686,-4.5739,-4.5753,-4.5827,-4.5856,-4.591,-4.5983,-4.6074,-4.6133,-4.622,-4.6368,-4.6388,-4.6432,-4.6446,-4.6458,-4.6472,-4.6555,-4.6576,-4.6351,-4.6351,-4.6351,0,0,-4.5367,-4.5428,-4.5483,-4.5609,-4.5665,-4.5758,-4.5711,-4.5811,-4.588,-4.5871,-4.5998,-4.6041,-4.6123,-4.6263,-4.6328,-4.6302,-4.6539,-4.647,-4.6479,-4.6487,-4.6568,-4.6589,-4.6608,-4.6358,-4.6356,-4.6355,0,0,-4.5503,-4.5558,-4.5663,-4.572,-4.5806,-4.5838,-4.5864,-4.5948,-4.5976,-4.6103,-4.6099,-4.6183,-4.6338,-4.6398,-4.6449,-4.661,-4.6603,-4.6638,-4.6711,-4.6792,-4.681,-4.6826,-4.6885,-4.6906,-4.6651,-4.6652,-4.6652,0,-4.5553,-4.5693,-4.5717,-4.5819,-4.5875,-4.5872,-4.598,-4.6034,-4.6144,-4.6183,-4.6153,-4.635,-4.6405,-4.656,-4.6599,-4.664,-4.6671,-4.6628,-4.6805,-4.6821,-4.6837,-4.6894,-4.6916,-4.6655,-4.6655,-4.6654,-4.6654,0,-4.5751,-4.5847,-4.5922,-4.6029,-4.6093,-4.6197,-4.6239,-4.6302,-4.631,-4.6347,-4.6478,-4.6544,-4.6646,-4.6683,-4.6693,-4.6841,-4.6823,-4.6799,-4.6745,-4.6862,-4.6916,-4.6938,-4.6661,-4.6659,-4.6658,-4.6657,0,0,-4.591,-4.603,-4.6057,-4.6107,-4.6202,-4.6277,-4.6382,-4.6482,-4.6536,-4.6612,-4.6701,-4.6834,-4.6813,-4.6871,-4.6887,-4.6958,-4.7084,-4.6925,-4.6928,-4.6954,-4.7253,-4.7272,-4.7296,-4.7079,-4.7083,-4.7087,-4.7247,0,-4.6057,-4.6242,-4.6269,-4.6432,-4.6523,-4.6522,-4.6614,-4.6682,-4.6719,-4.6803,-4.6843,-4.6938,-4.6902,-4.6937,-4.7007,-4.7053,-4.7145,-4.7042,-4.7164,-4.7168,-4.7144,-4.7324,-4.7344,-4.7492,-4.7268,-4.7272,-4.7274,0,-4.6253,-4.6335,-4.6508,-4.6593,-4.6632,-4.6714,-4.6808,-4.6887,-4.6966,-4.6988,-4.7054,-4.7062,-4.7171,-4.7112,-4.7265,-4.7195,-4.7246,-4.7277,-4.7283,-4.7296,-4.7229,-4.7344,-4.7539,-4.7562,-4.7308,-4.7305,-4.7302,0,-4.6354,-4.6508,-4.6632,-4.6674,-4.6775,-4.6833,-4.6878,-4.6952,-4.7012,-4.7095,-4.7134,-4.7228,-4.728,-4.7354,-4.7388,-4.7341,-4.7539,-4.7482,-4.7562,-4.7561,-4.7604,-4.7601,-4.7812,-4.7635,-4.7635,-4.7634,-4.7634,0,-4.6516,-4.6623,-4.6679,-4.6756,-4.6875,-4.6905,-4.7023,-4.7066,-4.7133,-4.7219,-4.7224,-4.7304,-4.7343,-4.743,-4.7457,-4.758,-4.7603,-4.7625,-4.7632,-4.7626,-4.7623,-4.7661,-4.7652,-4.764,-4.7639,-4.7638,-4.7637,0,-4.665,-4.6692,-4.6827,-4.6912,-4.6936,-4.7021,-4.7094,-4.7169,-4.7206,-4.7314,-4.7341,-4.7399,-4.7502,-4.7543,-4.7668,-4.7687,-4.7829,-4.7827,-4.7803,-4.7805,-4.7883,-4.7876,-4.8126,-4.8161,-4.796,-4.7962,-4.7963,0,-4.6751,-4.6833,-4.6927,-4.6985,-4.7032,-4.7125,-4.7185,-4.7219,-4.7282,-4.7379,-4.7442,-4.7545,-4.7629,-4.7793,-4.7847,-4.7943,-4.7944,-4.8025,-4.7958,-4.7951,-4.7947,-4.7942,-4.7952,-4.8037,-4.8039,-4.8041,-4.8042,0,-4.6927,-4.6944,-4.7031,-4.7127,-4.7199,-4.7276,-4.735,-4.7397,-4.7442,-4.7513,-4.7618,-4.7684,-4.7812,-4.7915,-4.8015,-4.8061,-4.8061,-4.8063,-4.8087,-4.8082,-4.8066,-4.8078,-4.7838,-4.8057,-4.8056,-4.8055,-4.8054,-4.8053,-4.7048,-4.7122,-4.7201,-4.7298,-4.7358,-4.7428,-4.7503,-4.755,-4.7638,-4.7746,-4.776,-4.7873,-4.7952,-4.8086,-4.8137,-4.8227,-4.8206,-4.824,-4.8249,-4.8257,-4.8263,-4.8051,-4.8245,-4.8245,-4.8244,-4.8244,-4.8244,0,-4.7226,-4.7277,-4.7366,-4.7471,-4.7548,-4.754,-4.7623,-4.7689,-4.7788,-4.7861,-4.7944,-4.8066,-4.8166,-4.8228,-4.8329,-4.8389,-4.8392,-4.8415,-4.8411,-4.8423,-4.8276,-4.8246,-4.8411,-4.8411,-4.8411,-4.8411,-4.8411,-4.8411,-4.7327,-4.7452,-4.7479,-4.7634,-4.7685,-4.7796,-4.7844,-4.7909,-4.7968,-4.8104,-4.8187,-4.8227,-4.8297,-4.8403,-4.8495,-4.8511,-4.8549,-4.8574,-4.8588,-4.845,-4.8433,-4.8416,-4.8388,-4.8581,-4.8582,-4.8728,-4.8729,-4.873]}]]